Time,TemperatureF,DewpointF,PressureIn,WindDirection,WindDirectionDegrees,WindSpeedMPH,WindSpeedGustMPH,Humidity,HourlyPrecipIn,Conditions,Clouds,dailyrainin,SoftwareType,DateUTC
2013-01-25 00:00:00,-10.3,-18.5,30.41,NNW,346,2.0,7.0,66,0.00,,,0.00,LWC V2.10 B1813,2013-01-25 09:00:00,
2013-01-25 00:05:00,-10.3,-18.5,30.41,North,349,8.0,11.0,66,0.00,,,0.00,LWC V2.10 B1813,2013-01-25 09:05:00,
2013-01-25 00:10:00,-10.4,-18.3,30.42,NNW,346,11.0,12.0,67,0.00,,,0.00,LWC V2.10 B1813,2013-01-25 09:10:00,
2013-01-25 00:15:00,-10.5,-18.4,30.41,NNW,331,4.0,9.0,67,0.00,,,0.00,LWC V2.10 B1813,2013-01-25 09:15:00,
2013-01-25 00:20:00,-10.7,-18.3,30.41,North,349,6.0,7.0,68,0.00,,,0.00,LWC V2.10 B1813,2013-01-25 09:20:00,
2013-01-25 00:25:00,-10.7,-18.3,30.41,NNW,334,3.0,7.0,68,0.00,,,0.00,LWC V2.10 B1813,2013-01-25 09:25:00,
2013-01-25 00:30:00,-10.8,-18.7,30.42,North,355,2.0,7.0,67,0.00,,,0.00,LWC V2.10 B1813,2013-01-25 09:30:00,
2013-01-25 00:35:00,-10.9,-18.8,30.42,NNW,336,6.0,7.0,67,0.00,,,0.00,LWC V2.10 B1813,2013-01-25 09:35:00,
2013-01-25 00:40:00,-11.0,-18.9,30.42,NW,323,2.0,7.0,67,0.00,,,0.00,LWC V2.10 B1813,2013-01-25 09:40:00,
2013-01-25 00:45:00,-11.2,-19.1,30.42,NNW,331,5.0,6.0,67,0.00,,,0.00,LWC V2.10 B1813,2013-01-25 09:45:00,
2013-01-25 00:50:00,-11.3,-19.1,30.42,North,355,3.0,6.0,67,0.00,,,0.00,LWC V2.10 B1813,2013-01-25 09:50:00,
2013-01-25 00:55:00,-11.5,-19.3,30.42,North,355,3.0,5.0,67,0.00,,,0.00,LWC V2.10 B1813,2013-01-25 09:55:00,
2013-01-25 01:00:00,-11.7,-19.2,30.42,North,0,7.0,8.0,68,0.00,,,0.00,LWC V2.10 B1813,2013-01-25 10:00:00,
2013-01-25 01:05:00,-11.7,-19.5,30.42,NNE,15,4.0,9.0,67,0.00,,,0.00,LWC V2.10 B1813,2013-01-25 10:05:00,
2013-01-25 01:10:00,-11.8,-19.3,30.42,North,355,4.0,7.0,68,0.00,,,0.00,LWC V2.10 B1813,2013-01-25 10:10:00,
2013-01-25 01:15:00,-12.1,-19.6,30.42,NNW,336,3.0,8.0,68,0.00,,,0.00,LWC V2.10 B1813,2013-01-25 10:15:00,
2013-01-25 01:20:00,-12.2,-19.7,30.42,NW,315,5.0,10.0,68,0.00,,,0.00,LWC V2.10 B1813,2013-01-25 10:20:00,
2013-01-25 01:25:00,-12.2,-19.7,30.42,NNW,340,2.0,5.0,68,0.00,,,0.00,LWC V2.10 B1813,2013-01-25 10:25:00,
2013-01-25 01:30:00,-12.4,-19.9,30.42,NNW,331,6.0,7.0,68,0.00,,,0.00,LWC V2.10 B1813,2013-01-25 10:30:00,
2013-01-25 01:35:00,-12.5,-20.0,30.42,NW,311,1.0,6.0,68,0.00,,,0.00,LWC V2.10 B1813,2013-01-25 10:35:00,
2013-01-25 01:40:00,-12.5,-20.0,30.42,NNE,17,0.0,9.0,68,0.00,,,0.00,LWC V2.10 B1813,2013-01-25 10:40:00,
2013-01-25 01:45:00,-12.3,-19.8,30.42,NW,320,0.0,8.0,68,0.00,,,0.00,LWC V2.10 B1813,2013-01-25 10:45:00,
2013-01-25 01:50:00,-11.8,-19.6,30.42,North,355,3.0,6.0,67,0.00,,,0.00,LWC V2.10 B1813,2013-01-25 10:50:00,
2013-01-25 01:55:00,-11.6,-19.4,30.42,NNW,340,4.0,6.0,67,0.00,,,0.00,LWC V2.10 B1813,2013-01-25 10:55:00,
2013-01-25 02:00:00,-11.7,-19.5,30.42,NNW,331,1.0,6.0,67,0.00,,,0.00,LWC V2.10 B1813,2013-01-25 11:00:00,
2013-01-25 02:05:00,-11.8,-19.6,30.42,North,9,0.0,2.0,67,0.00,,,0.00,LWC V2.10 B1813,2013-01-25 11:05:00,
2013-01-25 02:10:00,-12.1,-17.5,30.42,North,0,1.0,3.0,76,0.00,,,0.00,LWC V2.10 B1813,2013-01-25 11:10:00,
2013-01-25 02:15:00,-12.3,-20.1,30.43,NNE,17,6.0,7.0,67,0.00,,,0.00,LWC V2.10 B1813,2013-01-25 11:15:00,
2013-01-25 02:20:00,-12.4,-20.2,30.42,NNW,345,3.0,11.0,67,0.00,,,0.00,LWC V2.10 B1813,2013-01-25 11:20:00,
2013-01-25 02:25:00,-12.6,-20.4,30.42,NNW,329,4.0,10.0,67,0.00,,,0.00,LWC V2.10 B1813,2013-01-25 11:25:00,
2013-01-25 02:30:00,-13.0,-20.5,30.43,NNW,348,2.0,8.0,68,0.00,,,0.00,LWC V2.10 B1813,2013-01-25 11:30:00,
2013-01-25 02:35:00,-12.7,-19.9,30.43,NW,317,5.0,5.0,69,0.00,,,0.00,LWC V2.10 B1813,2013-01-25 11:35:00,
2013-01-25 02:40:00,-12.4,-19.6,30.43,NNE,22,3.0,9.0,69,0.00,,,0.00,LWC V2.10 B1813,2013-01-25 11:40:00,
2013-01-25 02:45:00,-12.2,-19.5,30.43,NNE,21,6.0,11.0,69,0.00,,,0.00,LWC V2.10 B1813,2013-01-25 11:45:00,
2013-01-25 02:50:00,-12.2,-19.7,30.43,NNW,329,1.0,11.0,68,0.00,,,0.00,LWC V2.10 B1813,2013-01-25 11:50:00,
2013-01-25 02:55:00,-12.5,-20.3,30.43,NW,313,2.0,3.0,67,0.00,,,0.00,LWC V2.10 B1813,2013-01-25 11:55:00,
2013-01-25 03:00:00,-12.9,-20.4,30.43,NNW,333,1.0,6.0,68,0.00,,,0.00,LWC V2.10 B1813,2013-01-25 12:00:00,
2013-01-25 03:05:00,-13.3,-20.8,30.43,North,0,7.0,10.0,68,0.00,,,0.00,LWC V2.10 B1813,2013-01-25 12:05:00,
2013-01-25 03:10:00,-13.5,-20.7,30.43,NW,306,1.0,5.0,69,0.00,,,0.00,LWC V2.10 B1813,2013-01-25 12:10:00,
2013-01-25 03:15:00,-13.8,-21.3,30.43,NW,306,2.0,4.0,68,0.00,,,0.00,LWC V2.10 B1813,2013-01-25 12:15:00,
2013-01-25 03:20:00,-14.0,-21.2,30.43,NW,313,0.0,3.0,69,0.00,,,0.00,LWC V2.10 B1813,2013-01-25 12:20:00,
2013-01-25 03:25:00,-13.6,-20.8,30.44,North,355,2.0,5.0,69,0.00,,,0.00,LWC V2.10 B1813,2013-01-25 12:25:00,
2013-01-25 03:30:00,-13.4,-20.6,30.44,NW,304,1.0,8.0,69,0.00,,,0.00,LWC V2.10 B1813,2013-01-25 12:30:00,
2013-01-25 03:35:00,-13.5,-21.0,30.43,WNW,300,5.0,8.0,68,0.00,,,0.00,LWC V2.10 B1813,2013-01-25 12:35:00,
2013-01-25 03:40:00,-13.8,-21.3,30.43,NE,49,1.0,4.0,68,0.00,,,0.00,LWC V2.10 B1813,2013-01-25 12:40:00,
2013-01-25 03:45:00,-13.9,-21.1,30.43,NE,48,0.0,2.0,69,0.00,,,0.00,LWC V2.10 B1813,2013-01-25 12:45:00,
2013-01-25 03:50:00,-14.0,-21.2,30.44,NW,320,1.0,3.0,69,0.00,,,0.00,LWC V2.10 B1813,2013-01-25 12:50:00,
2013-01-25 03:55:00,-14.2,-21.4,30.44,NW,319,0.0,1.0,69,0.00,,,0.00,LWC V2.10 B1813,2013-01-25 12:55:00,
2013-01-25 04:00:00,-14.0,-21.2,30.44,NW,321,0.0,3.0,69,0.00,,,0.00,LWC V2.10 B1813,2013-01-25 13:00:00,
2013-01-25 04:05:00,-13.8,-21.0,30.44,NW,319,0.0,1.0,69,0.00,,,0.00,LWC V2.10 B1813,2013-01-25 13:05:00,
2013-01-25 04:10:00,-13.9,-21.4,30.44,NNW,340,2.0,7.0,68,0.00,,,0.00,LWC V2.10 B1813,2013-01-25 13:10:00,
2013-01-25 04:15:00,-14.0,-21.5,30.44,NW,306,3.0,10.0,68,0.00,,,0.00,LWC V2.10 B1813,2013-01-25 13:15:00,
2013-01-25 04:20:00,-14.4,-21.8,30.43,NW,318,2.0,7.0,68,0.00,,,0.00,LWC V2.10 B1813,2013-01-25 13:20:00,
2013-01-25 04:25:00,-14.7,-22.1,30.43,NW,313,2.0,10.0,68,0.00,,,0.00,LWC V2.10 B1813,2013-01-25 13:25:00,
2013-01-25 04:30:00,-14.8,-22.0,30.44,NNE,23,1.0,5.0,69,0.00,,,0.00,LWC V2.10 B1813,2013-01-25 13:30:00,
2013-01-25 04:35:00,-14.5,-21.7,30.44,North,355,1.0,3.0,69,0.00,,,0.00,LWC V2.10 B1813,2013-01-25 13:35:00,
2013-01-25 04:40:00,-14.3,-21.7,30.43,NW,306,5.0,8.0,68,0.00,,,0.00,LWC V2.10 B1813,2013-01-25 13:40:00,
2013-01-25 04:45:00,-14.4,-21.8,30.43,NW,311,1.0,12.0,68,0.00,,,0.00,LWC V2.10 B1813,2013-01-25 13:45:00,
2013-01-25 04:50:00,-14.8,-22.2,30.44,NNW,340,1.0,11.0,68,0.00,,,0.00,LWC V2.10 B1813,2013-01-25 13:50:00,
2013-01-25 04:55:00,-14.7,-21.9,30.44,NW,311,2.0,12.0,69,0.00,,,0.00,LWC V2.10 B1813,2013-01-25 13:55:00,
2013-01-25 05:00:00,-14.5,-21.7,30.43,NW,319,3.0,15.0,69,0.00,,,0.00,LWC V2.10 B1813,2013-01-25 14:00:00,
2013-01-25 05:05:00,-14.3,-21.5,30.44,NNW,327,7.0,8.0,69,0.00,,,0.00,LWC V2.10 B1813,2013-01-25 14:05:00,
2013-01-25 05:10:00,-14.2,-21.4,30.44,NW,306,9.0,9.0,69,0.00,,,0.00,LWC V2.10 B1813,2013-01-25 14:10:00,
2013-01-25 05:15:00,-14.5,-21.9,30.43,NW,311,2.0,8.0,68,0.00,,,0.00,LWC V2.10 B1813,2013-01-25 14:15:00,
2013-01-25 05:20:00,-14.7,-21.9,30.44,WNW,289,4.0,10.0,69,0.00,,,0.00,LWC V2.10 B1813,2013-01-25 14:20:00,
2013-01-25 05:25:00,-14.9,-22.0,30.44,NW,319,3.0,9.0,69,0.00,,,0.00,LWC V2.10 B1813,2013-01-25 14:25:00,
2013-01-25 05:30:00,-14.7,-21.6,30.44,North,355,3.0,9.0,70,0.00,,,0.00,LWC V2.10 B1813,2013-01-25 14:30:00,
2013-01-25 05:35:00,-13.9,-21.1,30.44,East,81,1.0,3.0,69,0.00,,,0.00,LWC V2.10 B1813,2013-01-25 14:35:00,
2013-01-25 05:40:00,-13.7,-21.2,30.44,North,5,3.0,3.0,68,0.00,,,0.00,LWC V2.10 B1813,2013-01-25 14:40:00,
2013-01-25 05:45:00,-13.6,-21.4,30.44,NW,311,2.0,6.0,67,0.00,,,0.00,LWC V2.10 B1813,2013-01-25 14:45:00,
2013-01-25 05:50:00,-13.7,-21.5,30.44,NW,325,2.0,6.0,67,0.00,,,0.00,LWC V2.10 B1813,2013-01-25 14:50:00,
2013-01-25 05:55:00,-14.0,-21.7,30.44,NW,305,4.0,4.0,67,0.00,,,0.00,LWC V2.10 B1813,2013-01-25 14:55:00,
2013-01-25 06:00:00,-14.3,-22.0,30.44,NW,319,2.0,4.0,67,0.00,,,0.00,LWC V2.10 B1813,2013-01-25 15:00:00,
2013-01-25 06:05:00,-14.6,-22.3,30.44,NNE,14,1.0,3.0,67,0.00,,,0.00,LWC V2.10 B1813,2013-01-25 15:05:00,
2013-01-25 06:10:00,-14.7,-22.1,30.44,NW,323,2.0,3.0,68,0.00,,,0.00,LWC V2.10 B1813,2013-01-25 15:10:00,
2013-01-25 06:15:00,-14.3,-21.5,30.44,NW,323,2.0,3.0,69,0.00,,,0.00,LWC V2.10 B1813,2013-01-25 15:15:00,
2013-01-25 06:20:00,-14.4,-22.1,30.44,ESE,105,0.0,1.0,67,0.00,,,0.00,LWC V2.10 B1813,2013-01-25 15:20:00,
2013-01-25 06:25:00,-14.7,-22.4,30.45,ESE,105,2.0,3.0,67,0.00,,,0.00,LWC V2.10 B1813,2013-01-25 15:25:00,
2013-01-25 06:30:00,-15.1,-22.8,30.45,ESE,109,0.0,2.0,67,0.00,,,0.00,LWC V2.10 B1813,2013-01-25 15:30:00,
2013-01-25 06:35:00,-15.2,-22.3,30.45,NNE,28,1.0,4.0,69,0.00,,,0.00,LWC V2.10 B1813,2013-01-25 15:35:00,
2013-01-25 06:40:00,-15.0,-22.1,30.45,NNW,345,0.0,2.0,69,0.00,,,0.00,LWC V2.10 B1813,2013-01-25 15:40:00,
2013-01-25 06:45:00,-14.9,-22.3,30.45,NNW,346,0.0,0.0,68,0.00,,,0.00,LWC V2.10 B1813,2013-01-25 15:45:00,
2013-01-25 06:50:00,-15.0,-22.4,30.46,NNW,346,0.0,1.0,68,0.00,,,0.00,LWC V2.10 B1813,2013-01-25 15:50:00,
2013-01-25 06:55:00,-15.2,-22.6,30.46,East,79,0.0,2.0,68,0.00,,,0.00,LWC V2.10 B1813,2013-01-25 15:55:00,
2013-01-25 07:00:00,-15.4,-22.5,30.46,East,79,0.0,0.0,69,0.00,,,0.00,LWC V2.10 B1813,2013-01-25 16:00:00,
2013-01-25 07:05:00,-15.4,-22.5,30.46,North,0,3.0,4.0,69,0.00,,,0.00,LWC V2.10 B1813,2013-01-25 16:05:00,
2013-01-25 07:10:00,-15.3,-22.4,30.46,NNW,327,1.0,7.0,69,0.00,,,0.00,LWC V2.10 B1813,2013-01-25 16:10:00,
2013-01-25 07:15:00,-15.3,-22.4,30.46,NNW,331,1.0,3.0,69,0.00,,,0.00,LWC V2.10 B1813,2013-01-25 16:15:00,
2013-01-25 07:20:00,-15.2,-22.3,30.46,NNW,338,0.0,3.0,69,0.00,,,0.00,LWC V2.10 B1813,2013-01-25 16:20:00,
2013-01-25 07:25:00,-15.1,-22.2,30.46,NNW,344,2.0,2.0,69,0.00,,,0.00,LWC V2.10 B1813,2013-01-25 16:25:00,
2013-01-25 07:30:00,-15.0,-22.1,30.46,NNW,344,1.0,2.0,69,0.00,,,0.00,LWC V2.10 B1813,2013-01-25 16:30:00,
2013-01-25 07:35:00,-15.1,-22.5,30.46,NNW,345,1.0,2.0,68,0.00,,,0.00,LWC V2.10 B1813,2013-01-25 16:35:00,
2013-01-25 07:40:00,-15.2,-22.6,30.47,NNW,345,0.0,1.0,68,0.00,,,0.00,LWC V2.10 B1813,2013-01-25 16:40:00,
2013-01-25 07:45:00,-15.1,-22.2,30.46,NW,323,0.0,3.0,69,0.00,,,0.00,LWC V2.10 B1813,2013-01-25 16:45:00,
2013-01-25 07:50:00,-14.9,-22.0,30.47,NW,323,2.0,3.0,69,0.00,,,0.00,LWC V2.10 B1813,2013-01-25 16:50:00,
2013-01-25 07:55:00,-14.7,-21.9,30.47,NW,323,2.0,2.0,69,0.00,,,0.00,LWC V2.10 B1813,2013-01-25 16:55:00,
2013-01-25 08:00:00,-14.6,-21.8,30.47,North,0,0.0,1.0,69,0.00,,,0.00,LWC V2.10 B1813,2013-01-25 17:00:00,
2013-01-25 08:05:00,-14.8,-22.5,30.47,NW,325,0.0,0.0,67,0.00,,,0.00,LWC V2.10 B1813,2013-01-25 17:05:00,
2013-01-25 08:10:00,-14.9,-22.6,30.47,NW,325,0.0,2.0,67,0.00,,,0.00,LWC V2.10 B1813,2013-01-25 17:10:00,
2013-01-25 08:15:00,-15.1,-22.5,30.47,NW,325,0.0,1.0,68,0.00,,,0.00,LWC V2.10 B1813,2013-01-25 17:15:00,
2013-01-25 08:20:00,-15.3,-22.7,30.47,NW,326,0.0,1.0,68,0.00,,,0.00,LWC V2.10 B1813,2013-01-25 17:20:00,
2013-01-25 08:25:00,-15.6,-23.0,30.47,NW,326,0.0,2.0,68,0.00,,,0.00,LWC V2.10 B1813,2013-01-25 17:25:00,
2013-01-25 08:30:00,-15.6,-23.0,30.47,NNW,327,0.0,0.0,68,0.00,,,0.00,LWC V2.10 B1813,2013-01-25 17:30:00,
2013-01-25 08:35:00,-15.8,-23.2,30.47,NW,326,0.0,1.0,68,0.00,,,0.00,LWC V2.10 B1813,2013-01-25 17:35:00,
2013-01-25 08:40:00,-15.9,-23.0,30.48,NW,325,1.0,2.0,69,0.00,,,0.00,LWC V2.10 B1813,2013-01-25 17:40:00,
2013-01-25 08:45:00,-16.0,-23.1,30.48,NW,325,1.0,1.0,69,0.00,,,0.00,LWC V2.10 B1813,2013-01-25 17:45:00,
2013-01-25 08:50:00,-16.0,-23.1,30.48,NNW,327,1.0,2.0,69,0.00,,,0.00,LWC V2.10 B1813,2013-01-25 17:50:00,
2013-01-25 08:55:00,-15.9,-23.0,30.48,NW,325,0.0,1.0,69,0.00,,,0.00,LWC V2.10 B1813,2013-01-25 17:55:00,
2013-01-25 09:00:00,-15.7,-22.5,30.48,NW,326,0.0,1.0,70,0.00,,,0.00,LWC V2.10 B1813,2013-01-25 18:00:00,
2013-01-25 09:05:00,-15.7,-22.8,30.48,North,0,0.0,0.0,69,0.00,,,0.00,LWC V2.10 B1813,2013-01-25 18:05:00,
2013-01-25 09:10:00,-15.6,-22.7,30.48,NNW,327,0.0,1.0,69,0.00,,,0.00,LWC V2.10 B1813,2013-01-25 18:10:00,
2013-01-25 09:15:00,-15.7,-22.8,30.48,NW,326,1.0,1.0,69,0.00,,,0.00,LWC V2.10 B1813,2013-01-25 18:15:00,
2013-01-25 09:20:00,-15.8,-22.9,30.48,NW,326,2.0,2.0,69,0.00,,,0.00,LWC V2.10 B1813,2013-01-25 18:20:00,
2013-01-25 09:25:00,-16.1,-23.2,30.48,NNW,327,0.0,0.0,69,0.00,,,0.00,LWC V2.10 B1813,2013-01-25 18:25:00,
2013-01-25 09:30:00,-16.3,-23.1,30.48,NW,326,0.0,0.0,70,0.00,,,0.00,LWC V2.10 B1813,2013-01-25 18:30:00,
2013-01-25 09:35:00,-16.5,-23.3,30.48,NW,326,0.0,1.0,70,0.00,,,0.00,LWC V2.10 B1813,2013-01-25 18:35:00,
2013-01-25 09:40:00,-16.4,-23.2,30.48,NW,326,1.0,1.0,70,0.00,,,0.00,LWC V2.10 B1813,2013-01-25 18:40:00,
2013-01-25 09:45:00,-16.4,-23.2,30.48,NW,326,0.0,1.0,70,0.00,,,0.00,LWC V2.10 B1813,2013-01-25 18:45:00,
2013-01-25 09:50:00,-16.4,-23.2,30.48,NW,325,0.0,2.0,70,0.00,,,0.00,LWC V2.10 B1813,2013-01-25 18:50:00,
2013-01-25 09:55:00,-16.5,-23.3,30.49,NW,326,0.0,0.0,70,0.00,,,0.00,LWC V2.10 B1813,2013-01-25 18:55:00,
2013-01-25 10:00:00,-16.5,-23.3,30.48,NW,326,1.0,1.0,70,0.00,,,0.00,LWC V2.10 B1813,2013-01-25 19:00:00,
2013-01-25 10:05:00,-16.6,-23.1,30.49,NW,326,1.0,2.0,71,0.00,,,0.00,LWC V2.10 B1813,2013-01-25 19:05:00,
2013-01-25 10:10:00,-16.5,-23.1,30.49,NW,326,0.0,0.0,71,0.00,,,0.00,LWC V2.10 B1813,2013-01-25 19:10:00,
2013-01-25 10:15:00,-16.6,-23.4,30.49,NW,326,2.0,2.0,70,0.00,,,0.00,LWC V2.10 B1813,2013-01-25 19:15:00,
2013-01-25 10:20:00,-16.6,-23.4,30.49,NNW,327,0.0,2.0,70,0.00,,,0.00,LWC V2.10 B1813,2013-01-25 19:20:00,
2013-01-25 10:30:00,20.8,17.0,30.78,North,0,0.0,2.0,85,0.00,,,0.00,LWC V2.10 B1813,2013-01-25 19:30:00,
2013-01-25 10:40:00,-16.7,-23.5,30.50,NW,326,0.0,1.0,70,0.00,,,0.00,LWC V2.10 B1813,2013-01-25 19:40:00,
2013-01-25 10:51:00,-16.8,-23.3,30.50,NW,326,0.0,1.0,71,0.00,,,0.00,LWC V2.10 B1813,2013-01-25 19:51:00,
2013-01-25 10:56:00,-16.6,-22.9,30.50,NW,325,0.0,0.0,72,0.00,,,0.00,LWC V2.10 B1813,2013-01-25 19:56:00,
2013-01-25 11:01:00,-16.4,-23.0,30.50,NNW,327,0.0,0.0,71,0.00,,,0.00,LWC V2.10 B1813,2013-01-25 20:01:00,
2013-01-25 11:06:00,-16.2,-22.8,30.51,NW,326,0.0,0.0,71,0.00,,,0.00,LWC V2.10 B1813,2013-01-25 20:06:00,
2013-01-25 11:11:00,-15.7,-22.3,30.51,NW,326,1.0,1.0,71,0.00,,,0.00,LWC V2.10 B1813,2013-01-25 20:11:00,
2013-01-25 11:16:00,-15.2,-22.1,30.51,NW,326,0.0,0.0,70,0.00,,,0.00,LWC V2.10 B1813,2013-01-25 20:16:00,
2013-01-25 11:21:00,-14.8,-21.7,30.51,NW,326,0.0,0.0,70,0.00,,,0.00,LWC V2.10 B1813,2013-01-25 20:21:00,
2013-01-25 11:26:00,-14.5,-21.7,30.51,NW,326,0.0,1.0,69,0.00,,,0.00,LWC V2.10 B1813,2013-01-25 20:26:00,
2013-01-25 11:31:00,-14.2,-21.7,30.51,NW,326,0.0,0.0,68,0.00,,,0.00,LWC V2.10 B1813,2013-01-25 20:31:00,
2013-01-25 11:36:00,-14.0,-21.5,30.51,NW,326,0.0,0.0,68,0.00,,,0.00,LWC V2.10 B1813,2013-01-25 20:36:00,
2013-01-25 11:41:00,-14.0,-21.5,30.51,NW,326,0.0,0.0,68,0.00,,,0.00,LWC V2.10 B1813,2013-01-25 20:41:00,
2013-01-25 11:46:00,-14.3,-22.0,30.51,NW,326,0.0,0.0,67,0.00,,,0.00,LWC V2.10 B1813,2013-01-25 20:46:00,
2013-01-25 11:51:00,-14.5,-22.2,30.51,NW,326,1.0,1.0,67,0.00,,,0.00,LWC V2.10 B1813,2013-01-25 20:51:00,
2013-01-25 11:56:00,-14.5,-22.2,30.52,NNW,329,1.0,2.0,67,0.00,,,0.00,LWC V2.10 B1813,2013-01-25 20:56:00,
2013-01-25 12:01:00,-14.5,-22.2,30.52,ENE,70,0.0,3.0,67,0.00,,,0.00,LWC V2.10 B1813,2013-01-25 21:01:00,
2013-01-25 12:06:00,-14.3,-22.0,30.52,ENE,69,0.0,1.0,67,0.00,,,0.00,LWC V2.10 B1813,2013-01-25 21:06:00,
2013-01-25 12:11:00,-14.3,-22.3,30.52,ENE,70,0.0,2.0,66,0.00,,,0.00,LWC V2.10 B1813,2013-01-25 21:11:00,
2013-01-25 12:16:00,-14.0,-22.0,30.52,ENE,70,0.0,0.0,66,0.00,,,0.00,LWC V2.10 B1813,2013-01-25 21:16:00,
2013-01-25 12:21:00,-13.6,-21.4,30.52,ENE,70,0.0,0.0,67,0.00,,,0.00,LWC V2.10 B1813,2013-01-25 21:21:00,
2013-01-25 12:26:00,-13.3,-21.1,30.52,ENE,69,0.0,0.0,67,0.00,,,0.00,LWC V2.10 B1813,2013-01-25 21:26:00,
2013-01-25 12:31:00,-12.9,-20.7,30.52,ENE,69,0.0,0.0,67,0.00,,,0.00,LWC V2.10 B1813,2013-01-25 21:31:00,
2013-01-25 12:36:00,-12.7,-20.8,30.52,ENE,70,0.0,1.0,66,0.00,,,0.00,LWC V2.10 B1813,2013-01-25 21:36:00,
2013-01-25 12:41:00,-12.6,-20.7,30.53,ENE,69,0.0,0.0,66,0.00,,,0.00,LWC V2.10 B1813,2013-01-25 21:41:00,
2013-01-25 12:46:00,-12.5,-20.6,30.53,ENE,68,1.0,2.0,66,0.00,,,0.00,LWC V2.10 B1813,2013-01-25 21:46:00,
2013-01-25 12:51:00,-12.4,-20.5,30.53,NNW,344,2.0,2.0,66,0.00,,,0.00,LWC V2.10 B1813,2013-01-25 21:51:00,
2013-01-25 12:56:00,-12.5,-20.9,30.53,NNW,340,2.0,2.0,65,0.00,,,0.00,LWC V2.10 B1813,2013-01-25 21:56:00,
2013-01-25 13:01:00,-12.5,-20.9,30.53,NNW,339,0.0,1.0,65,0.00,,,0.00,LWC V2.10 B1813,2013-01-25 22:01:00,
2013-01-25 13:06:00,-12.7,-21.4,30.53,NNW,340,2.0,2.0,64,0.00,,,0.00,LWC V2.10 B1813,2013-01-25 22:06:00,
2013-01-25 13:11:00,-12.9,-21.9,30.53,NNE,21,0.0,0.0,63,0.00,,,0.00,LWC V2.10 B1813,2013-01-25 22:11:00,
2013-01-25 13:16:00,-12.9,-21.9,30.53,NNE,21,1.0,1.0,63,0.00,,,0.00,LWC V2.10 B1813,2013-01-25 22:16:00,
2013-01-25 13:21:00,-13.3,-22.5,30.53,East,82,2.0,5.0,62,0.00,,,0.00,LWC V2.10 B1813,2013-01-25 22:21:00,
2013-01-25 13:26:00,-13.9,-23.4,30.53,East,82,0.0,1.0,61,0.00,,,0.00,LWC V2.10 B1813,2013-01-25 22:26:00,
2013-01-25 13:31:00,-14.4,-23.6,30.53,East,82,0.0,1.0,62,0.00,,,0.00,LWC V2.10 B1813,2013-01-25 22:31:00,
2013-01-25 13:36:00,-14.8,-23.7,30.54,East,82,0.0,1.0,63,0.00,,,0.00,LWC V2.10 B1813,2013-01-25 22:36:00,
2013-01-25 13:41:00,-14.9,-23.5,30.54,East,82,2.0,2.0,64,0.00,,,0.00,LWC V2.10 B1813,2013-01-25 22:41:00,
2013-01-25 13:46:00,-14.9,-23.2,30.54,East,82,0.0,0.0,65,0.00,,,0.00,LWC V2.10 B1813,2013-01-25 22:46:00,
2013-01-25 13:51:00,-14.8,-23.1,30.54,East,83,1.0,3.0,65,0.00,,,0.00,LWC V2.10 B1813,2013-01-25 22:51:00,
2013-01-25 13:56:00,-14.7,-23.0,30.54,East,82,0.0,0.0,65,0.00,,,0.00,LWC V2.10 B1813,2013-01-25 22:56:00,
2013-01-25 14:01:00,-14.4,-22.4,30.54,East,82,0.0,0.0,66,0.00,,,0.00,LWC V2.10 B1813,2013-01-25 23:01:00,
2013-01-25 14:06:00,-14.4,-22.7,30.54,East,83,1.0,3.0,65,0.00,,,0.00,LWC V2.10 B1813,2013-01-25 23:06:00,
2013-01-25 14:11:00,-14.7,-23.0,30.54,East,83,2.0,3.0,65,0.00,,,0.00,LWC V2.10 B1813,2013-01-25 23:11:00,
2013-01-25 14:16:00,-15.4,-24.2,30.54,East,82,3.0,5.0,63,0.00,,,0.00,LWC V2.10 B1813,2013-01-25 23:16:00,
2013-01-25 14:21:00,-16.5,-25.3,30.54,East,82,3.0,3.0,63,0.00,,,0.00,LWC V2.10 B1813,2013-01-25 23:21:00,
2013-01-25 14:26:00,-17.1,-25.6,30.55,East,83,1.0,1.0,64,0.00,,,0.00,LWC V2.10 B1813,2013-01-25 23:26:00,
2013-01-25 14:31:00,-17.4,-25.9,30.55,East,82,0.0,1.0,64,0.00,,,0.00,LWC V2.10 B1813,2013-01-25 23:31:00,
2013-01-25 14:36:00,-17.4,-25.3,30.55,ENE,62,1.0,3.0,66,0.00,,,0.00,LWC V2.10 B1813,2013-01-25 23:36:00,
2013-01-25 14:41:00,-17.2,-24.8,30.55,ENE,62,1.0,1.0,67,0.00,,,0.00,LWC V2.10 B1813,2013-01-25 23:41:00,
2013-01-25 14:46:00,-17.1,-24.7,30.55,ENE,62,0.0,0.0,67,0.00,,,0.00,LWC V2.10 B1813,2013-01-25 23:46:00,
2013-01-25 14:51:00,-17.2,-24.8,30.55,ENE,62,0.0,0.0,67,0.00,,,0.00,LWC V2.10 B1813,2013-01-25 23:51:00,
2013-01-25 14:56:00,-17.5,-25.1,30.55,ENE,61,0.0,0.0,67,0.00,,,0.00,LWC V2.10 B1813,2013-01-25 23:56:00,
2013-01-25 15:01:00,-17.8,-25.1,30.55,ENE,61,0.0,1.0,68,0.00,,,0.00,LWC V2.10 B1813,2013-01-26 00:01:00,
2013-01-25 15:06:00,-18.0,-25.3,30.55,North,0,2.0,2.0,68,0.00,,,0.00,LWC V2.10 B1813,2013-01-26 00:06:00,
2013-01-25 15:11:00,-18.1,-25.1,30.55,North,5,2.0,2.0,69,0.00,,,0.00,LWC V2.10 B1813,2013-01-26 00:11:00,
2013-01-25 15:16:00,-18.0,-24.8,30.55,North,355,3.0,3.0,70,0.00,,,0.00,LWC V2.10 B1813,2013-01-26 00:16:00,
2013-01-25 15:21:00,-18.0,-24.8,30.55,NNW,348,2.0,3.0,70,0.00,,,0.00,LWC V2.10 B1813,2013-01-26 00:21:00,
2013-01-25 15:26:00,-17.9,-24.4,30.55,NNW,348,2.0,3.0,71,0.00,,,0.00,LWC V2.10 B1813,2013-01-26 00:26:00,
2013-01-25 15:31:00,-17.8,-24.3,30.56,NNW,348,1.0,2.0,71,0.00,,,0.00,LWC V2.10 B1813,2013-01-26 00:31:00,
2013-01-25 15:36:00,-17.6,-24.1,30.56,NNW,348,2.0,2.0,71,0.00,,,0.00,LWC V2.10 B1813,2013-01-26 00:36:00,
2013-01-25 15:41:00,-17.5,-24.0,30.56,NNW,348,2.0,2.0,71,0.00,,,0.00,LWC V2.10 B1813,2013-01-26 00:41:00,
2013-01-25 15:46:00,-17.4,-23.9,30.56,NNW,348,1.0,1.0,71,0.00,,,0.00,LWC V2.10 B1813,2013-01-26 00:46:00,
2013-01-25 15:51:00,-17.4,-23.9,30.56,NNW,348,0.0,1.0,71,0.00,,,0.00,LWC V2.10 B1813,2013-01-26 00:51:00,
2013-01-25 15:56:00,-17.4,-23.9,30.56,NNW,348,0.0,0.0,71,0.00,,,0.00,LWC V2.10 B1813,2013-01-26 00:56:00,
2013-01-25 16:01:00,-17.4,-24.2,30.56,NNW,348,0.0,1.0,70,0.00,,,0.00,LWC V2.10 B1813,2013-01-26 01:01:00,
2013-01-25 16:06:00,-17.4,-24.2,30.56,NNW,348,0.0,0.0,70,0.00,,,0.00,LWC V2.10 B1813,2013-01-26 01:06:00,
2013-01-25 16:11:00,-17.5,-24.3,30.56,NNW,348,0.0,1.0,70,0.00,,,0.00,LWC V2.10 B1813,2013-01-26 01:11:00,
2013-01-25 16:16:00,-17.6,-24.4,30.56,NNW,348,0.0,0.0,70,0.00,,,0.00,LWC V2.10 B1813,2013-01-26 01:16:00,
2013-01-25 16:21:00,-17.7,-24.2,30.56,NNW,348,0.0,0.0,71,0.00,,,0.00,LWC V2.10 B1813,2013-01-26 01:21:00,
2013-01-25 16:26:00,-17.8,-24.3,30.56,NNW,348,1.0,1.0,71,0.00,,,0.00,LWC V2.10 B1813,2013-01-26 01:26:00,
2013-01-25 16:31:00,-17.8,-24.0,30.57,NNW,348,2.0,2.0,72,0.00,,,0.00,LWC V2.10 B1813,2013-01-26 01:31:00,
2013-01-25 16:36:00,-17.8,-24.0,30.57,NNW,348,1.0,1.0,72,0.00,,,0.00,LWC V2.10 B1813,2013-01-26 01:36:00,
2013-01-25 16:41:00,-17.9,-24.1,30.57,NNW,348,1.0,1.0,72,0.00,,,0.00,LWC V2.10 B1813,2013-01-26 01:41:00,
2013-01-25 16:46:00,-18.0,-24.5,30.58,NE,45,2.0,3.0,71,0.00,,,0.00,LWC V2.10 B1813,2013-01-26 01:46:00,
2013-01-25 16:51:00,-18.0,-24.5,30.58,NE,46,1.0,3.0,71,0.00,,,0.00,LWC V2.10 B1813,2013-01-26 01:51:00,
2013-01-25 16:56:00,-18.0,-24.5,30.58,NE,42,2.0,3.0,71,0.00,,,0.00,LWC V2.10 B1813,2013-01-26 01:56:00,
2013-01-25 17:01:00,-18.1,-24.6,30.57,ENE,63,0.0,1.0,71,0.00,,,0.00,LWC V2.10 B1813,2013-01-26 02:01:00,
2013-01-25 17:06:00,-18.1,-24.6,30.57,ENE,63,2.0,2.0,71,0.00,,,0.00,LWC V2.10 B1813,2013-01-26 02:06:00,
2013-01-25 17:11:00,-18.0,-24.5,30.58,ENE,64,3.0,3.0,71,0.00,,,0.00,LWC V2.10 B1813,2013-01-26 02:11:00,
2013-01-25 17:16:00,-18.0,-24.5,30.58,East,80,0.0,2.0,71,0.00,,,0.00,LWC V2.10 B1813,2013-01-26 02:16:00,
2013-01-25 17:21:00,-18.0,-24.5,30.58,East,79,0.0,1.0,71,0.00,,,0.00,LWC V2.10 B1813,2013-01-26 02:21:00,
2013-01-25 17:26:00,-18.0,-24.2,30.58,East,79,0.0,1.0,72,0.00,,,0.00,LWC V2.10 B1813,2013-01-26 02:26:00,
2013-01-25 17:31:00,-18.2,-24.7,30.58,East,79,1.0,2.0,71,0.00,,,0.00,LWC V2.10 B1813,2013-01-26 02:31:00,
2013-01-25 17:36:00,-18.3,-24.8,30.58,East,79,1.0,1.0,71,0.00,,,0.00,LWC V2.10 B1813,2013-01-26 02:36:00,
2013-01-25 17:41:00,-18.6,-25.1,30.58,East,79,1.0,1.0,71,0.00,,,0.00,LWC V2.10 B1813,2013-01-26 02:41:00,
2013-01-25 17:46:00,-18.8,-25.0,30.58,East,79,0.0,0.0,72,0.00,,,0.00,LWC V2.10 B1813,2013-01-26 02:46:00,
2013-01-25 17:51:00,-18.9,-25.1,30.58,East,79,0.0,0.0,72,0.00,,,0.00,LWC V2.10 B1813,2013-01-26 02:51:00,
2013-01-25 17:56:00,-18.9,-24.9,30.58,East,79,0.0,1.0,73,0.00,,,0.00,LWC V2.10 B1813,2013-01-26 02:56:00,
2013-01-25 18:01:00,-19.0,-25.0,30.58,ENE,78,2.0,3.0,73,0.00,,,0.00,LWC V2.10 B1813,2013-01-26 03:01:00,
2013-01-25 18:06:00,-19.3,-25.5,30.58,East,79,1.0,1.0,72,0.00,,,0.00,LWC V2.10 B1813,2013-01-26 03:06:00,
2013-01-25 18:11:00,-19.4,-25.6,30.58,ENE,78,0.0,2.0,72,0.00,,,0.00,LWC V2.10 B1813,2013-01-26 03:11:00,
2013-01-25 18:16:00,-19.5,-25.4,30.58,East,79,1.0,2.0,73,0.00,,,0.00,LWC V2.10 B1813,2013-01-26 03:16:00,
2013-01-25 18:21:00,-19.6,-25.8,30.58,East,79,0.0,1.0,72,0.00,,,0.00,LWC V2.10 B1813,2013-01-26 03:21:00,
2013-01-25 18:26:00,-19.8,-25.7,30.59,East,79,0.0,0.0,73,0.00,,,0.00,LWC V2.10 B1813,2013-01-26 03:26:00,
2013-01-25 18:31:00,-19.9,-25.6,30.58,East,79,0.0,1.0,74,0.00,,,0.00,LWC V2.10 B1813,2013-01-26 03:31:00,
2013-01-25 18:36:00,-19.9,-25.6,30.59,East,79,0.0,0.0,74,0.00,,,0.00,LWC V2.10 B1813,2013-01-26 03:36:00,
2013-01-25 18:41:00,-19.8,-25.5,30.59,East,79,0.0,0.0,74,0.00,,,0.00,LWC V2.10 B1813,2013-01-26 03:41:00,
2013-01-25 18:46:00,-20.0,-25.9,30.59,East,79,0.0,0.0,73,0.00,,,0.00,LWC V2.10 B1813,2013-01-26 03:46:00,
2013-01-25 18:51:00,-20.1,-25.8,30.59,East,79,0.0,1.0,74,0.00,,,0.00,LWC V2.10 B1813,2013-01-26 03:51:00,
2013-01-25 18:56:00,-20.1,-25.8,30.59,ENE,78,0.0,0.0,74,0.00,,,0.00,LWC V2.10 B1813,2013-01-26 03:56:00,
2013-01-25 19:01:00,-20.1,-25.8,30.59,East,79,0.0,0.0,74,0.00,,,0.00,LWC V2.10 B1813,2013-01-26 04:01:00,
2013-01-25 19:06:00,-20.0,-25.4,30.59,East,79,0.0,0.0,75,0.00,,,0.00,LWC V2.10 B1813,2013-01-26 04:06:00,
2013-01-25 19:11:00,-20.0,-25.7,30.59,East,79,0.0,0.0,74,0.00,,,0.00,LWC V2.10 B1813,2013-01-26 04:11:00,
2013-01-25 19:16:00,-19.9,-25.6,30.59,East,79,0.0,0.0,74,0.00,,,0.00,LWC V2.10 B1813,2013-01-26 04:16:00,
2013-01-25 19:21:00,-19.9,-25.3,30.59,ENE,78,0.0,0.0,75,0.00,,,0.00,LWC V2.10 B1813,2013-01-26 04:21:00,
2013-01-25 19:26:00,-19.8,-25.2,30.59,East,79,0.0,0.0,75,0.00,,,0.00,LWC V2.10 B1813,2013-01-26 04:26:00,
2013-01-25 19:31:00,-19.4,-24.6,30.59,NNE,28,2.0,2.0,76,0.00,,,0.00,LWC V2.10 B1813,2013-01-26 04:31:00,
2013-01-25 19:36:00,-19.2,-24.6,30.59,NNE,28,0.0,1.0,75,0.00,,,0.00,LWC V2.10 B1813,2013-01-26 04:36:00,
2013-01-25 19:41:00,-19.1,-24.5,30.59,NNE,28,1.0,2.0,75,0.00,,,0.00,LWC V2.10 B1813,2013-01-26 04:41:00,
2013-01-25 19:46:00,-19.3,-25.2,30.59,NNE,28,0.0,1.0,73,0.00,,,0.00,LWC V2.10 B1813,2013-01-26 04:46:00,
2013-01-25 19:51:00,-19.4,-25.1,30.59,NNE,33,0.0,2.0,74,0.00,,,0.00,LWC V2.10 B1813,2013-01-26 04:51:00,
2013-01-25 19:56:00,-19.4,-25.1,30.59,NNE,33,1.0,1.0,74,0.00,,,0.00,LWC V2.10 B1813,2013-01-26 04:56:00,
2013-01-25 20:00:00,-19.3,-25.0,30.59,North,355,1.0,3.0,74,0.00,,,0.00,LWC V2.10 B1813,2013-01-26 05:00:00,
2013-01-25 20:05:00,-19.1,-24.8,30.59,North,355,0.0,2.0,74,0.00,,,0.00,LWC V2.10 B1813,2013-01-26 05:05:00,
2013-01-25 20:10:00,-19.1,-24.8,30.60,North,355,0.0,2.0,74,0.00,,,0.00,LWC V2.10 B1813,2013-01-26 05:10:00,
2013-01-25 20:15:00,-19.0,-24.7,30.60,North,355,1.0,1.0,74,0.00,,,0.00,LWC V2.10 B1813,2013-01-26 05:15:00,
2013-01-25 20:20:00,-19.0,-24.7,30.60,North,355,1.0,2.0,74,0.00,,,0.00,LWC V2.10 B1813,2013-01-26 05:20:00,
2013-01-25 20:25:00,-19.0,-24.7,30.60,North,355,2.0,3.0,74,0.00,,,0.00,LWC V2.10 B1813,2013-01-26 05:25:00,
2013-01-25 20:30:00,-19.0,-24.7,30.60,NNW,346,0.0,0.0,74,0.00,,,0.00,LWC V2.10 B1813,2013-01-26 05:30:00,
2013-01-25 20:35:00,-19.2,-25.1,30.60,East,86,1.0,2.0,73,0.00,,,0.00,LWC V2.10 B1813,2013-01-26 05:35:00,
2013-01-25 20:40:00,-19.4,-25.3,30.60,East,86,0.0,0.0,73,0.00,,,0.00,LWC V2.10 B1813,2013-01-26 05:40:00,
2013-01-25 20:45:00,-19.6,-25.5,30.60,East,86,0.0,1.0,73,0.00,,,0.00,LWC V2.10 B1813,2013-01-26 05:45:00,
2013-01-25 20:50:00,-19.6,-25.3,30.60,East,86,0.0,0.0,74,0.00,,,0.00,LWC V2.10 B1813,2013-01-26 05:50:00,
2013-01-25 20:55:00,-19.6,-25.3,30.60,East,86,0.0,0.0,74,0.00,,,0.00,LWC V2.10 B1813,2013-01-26 05:55:00,
2013-01-25 21:00:00,-19.7,-25.4,30.60,East,86,0.0,1.0,74,0.00,,,0.00,LWC V2.10 B1813,2013-01-26 06:00:00,
2013-01-25 21:05:00,-19.8,-25.7,30.60,NNW,340,1.0,2.0,73,0.00,,,0.00,LWC V2.10 B1813,2013-01-26 06:05:00,
2013-01-25 21:10:00,-20.0,-25.7,30.60,NNW,340,2.0,3.0,74,0.00,,,0.00,LWC V2.10 B1813,2013-01-26 06:10:00,
2013-01-25 21:15:00,-20.0,-25.7,30.60,NNW,340,1.0,2.0,74,0.00,,,0.00,LWC V2.10 B1813,2013-01-26 06:15:00,
2013-01-25 21:20:00,-20.1,-25.8,30.60,NNW,340,1.0,2.0,74,0.00,,,0.00,LWC V2.10 B1813,2013-01-26 06:20:00,
2013-01-25 21:23:00,-20.2,-25.9,30.60,NNW,340,1.0,2.0,74,0.00,,,0.00,LWC V2.10 B1813,2013-01-26 06:23:00,
2013-01-25 21:28:00,-20.4,-26.1,30.60,NNW,340,2.0,2.0,74,0.00,,,0.00,LWC V2.10 B1813,2013-01-26 06:28:00,
2013-01-25 21:33:00,-20.6,-26.2,30.60,NNW,340,1.0,1.0,74,0.00,,,0.00,LWC V2.10 B1813,2013-01-26 06:33:00,
2013-01-25 21:38:00,-20.7,-26.3,30.60,NE,34,1.0,1.0,74,0.00,,,0.00,LWC V2.10 B1813,2013-01-26 06:38:00,
2013-01-25 21:43:00,-20.7,-26.3,30.60,NE,34,1.0,2.0,74,0.00,,,0.00,LWC V2.10 B1813,2013-01-26 06:43:00,
2013-01-25 21:48:00,-20.8,-26.4,30.60,NE,34,1.0,2.0,74,0.00,,,0.00,LWC V2.10 B1813,2013-01-26 06:48:00,
2013-01-25 21:51:00,-21.0,-26.6,30.60,NE,35,0.0,0.0,74,0.00,,,0.00,LWC V2.10 B1813,2013-01-26 06:51:00,
2013-01-25 21:56:00,-21.0,-26.4,30.60,NE,34,0.0,1.0,75,0.00,,,0.00,LWC V2.10 B1813,2013-01-26 06:56:00,
2013-01-25 22:01:00,-21.1,-26.5,30.60,NE,34,0.0,0.0,75,0.00,,,0.00,LWC V2.10 B1813,2013-01-26 07:01:00,
2013-01-25 22:06:00,-21.1,-26.7,30.60,NE,34,0.0,0.0,74,0.00,,,0.00,LWC V2.10 B1813,2013-01-26 07:06:00,
2013-01-25 22:11:00,-21.4,-27.0,30.60,NNW,348,0.0,2.0,74,0.00,,,0.00,LWC V2.10 B1813,2013-01-26 07:11:00,
2013-01-25 22:16:00,-22.1,-28.2,30.60,NNW,347,0.0,0.0,72,0.00,,,0.00,LWC V2.10 B1813,2013-01-26 07:16:00,
2013-01-25 22:21:00,-22.3,-27.9,30.60,NNW,348,0.0,1.0,74,0.00,,,0.00,LWC V2.10 B1813,2013-01-26 07:21:00,
2013-01-25 22:26:00,-22.3,-27.7,30.60,NNW,347,1.0,2.0,75,0.00,,,0.00,LWC V2.10 B1813,2013-01-26 07:26:00,
2013-01-25 22:31:00,-22.6,-28.2,30.60,North,5,0.0,2.0,74,0.00,,,0.00,LWC V2.10 B1813,2013-01-26 07:31:00,
2013-01-25 22:36:00,-23.0,-28.8,30.60,NE,51,0.0,0.0,73,0.00,,,0.00,LWC V2.10 B1813,2013-01-26 07:36:00,
2013-01-25 22:41:00,-23.5,-29.3,30.60,ESE,107,2.0,6.0,73,0.00,,,0.00,LWC V2.10 B1813,2013-01-26 07:41:00,
2013-01-25 22:46:00,-23.4,-28.7,30.60,ESE,107,0.0,2.0,75,0.00,,,0.00,LWC V2.10 B1813,2013-01-26 07:46:00,
2013-01-25 22:51:00,-23.5,-28.8,30.60,ESE,107,0.0,0.0,75,0.00,,,0.00,LWC V2.10 B1813,2013-01-26 07:51:00,
2013-01-25 22:56:00,-23.4,-28.7,30.60,ESE,107,0.0,1.0,75,0.00,,,0.00,LWC V2.10 B1813,2013-01-26 07:56:00,
2013-01-25 23:01:00,-23.3,-28.6,30.60,ESE,106,0.0,0.0,75,0.00,,,0.00,LWC V2.10 B1813,2013-01-26 08:01:00,
2013-01-25 23:06:00,-23.3,-28.6,30.60,ESE,107,0.0,0.0,75,0.00,,,0.00,LWC V2.10 B1813,2013-01-26 08:06:00,
2013-01-25 23:11:00,-23.2,-28.5,30.60,ESE,107,0.0,1.0,75,0.00,,,0.00,LWC V2.10 B1813,2013-01-26 08:11:00,
2013-01-25 23:16:00,-23.3,-28.6,30.60,ESE,107,0.0,1.0,75,0.00,,,0.00,LWC V2.10 B1813,2013-01-26 08:16:00,
2013-01-25 23:21:00,-23.4,-29.0,30.60,ESE,106,1.0,2.0,74,0.00,,,0.00,LWC V2.10 B1813,2013-01-26 08:21:00,
2013-01-25 23:26:00,-23.5,-29.1,30.61,ESE,107,0.0,1.0,74,0.00,,,0.00,LWC V2.10 B1813,2013-01-26 08:26:00,
2013-01-25 23:31:00,-23.7,-29.3,30.60,ESE,107,0.0,0.0,74,0.00,,,0.00,LWC V2.10 B1813,2013-01-26 08:31:00,
2013-01-25 23:36:00,-23.8,-29.4,30.60,ESE,107,0.0,1.0,74,0.00,,,0.00,LWC V2.10 B1813,2013-01-26 08:36:00,
2013-01-25 23:41:00,-23.9,-29.5,30.60,ESE,107,1.0,1.0,74,0.00,,,0.00,LWC V2.10 B1813,2013-01-26 08:41:00,
2013-01-25 23:46:00,-24.1,-29.6,30.60,ESE,107,0.0,0.0,74,0.00,,,0.00,LWC V2.10 B1813,2013-01-26 08:46:00,
2013-01-25 23:51:00,-24.1,-29.6,30.61,ESE,107,0.0,0.0,74,0.00,,,0.00,LWC V2.10 B1813,2013-01-26 08:51:00,
2013-01-25 23:56:00,-24.2,-29.7,30.61,ESE,107,1.0,1.0,74,0.00,,,0.00,LWC V2.10 B1813,2013-01-26 08:56:00,